Location: Vienna
(38.9012°N, 77.2653°W)
Time: 18:57:53
(UTC-04:00)

Envisat - Visible Passes

Search period start: 21 April 2018 00:00
Search period end: 01 May 2018 00:00
Orbit: 764 x 766 km, 98.2° (Epoch: 21 April)

Date Brightness Start Highest point End Pass type
(mag) Time Alt. Az. Time Alt. Az. Time Alt. Az.
21 Apr 5.6 21:46:48 10° SW 21:50:10 18° W 21:53:31 10° NW visible
22 Apr 4.3 21:08:26 10° SSW 21:13:11 40° W 21:17:57 10° NNW visible
23 Apr 3.0 20:31:19 10° SSE 20:36:23 89° E 20:41:30 10° NNW visible
24 Apr 5.2 21:34:59 10° SW 21:38:54 22° W 21:42:51 10° NW visible
25 Apr 3.9 20:57:04 10° S 21:01:59 51° W 21:06:56 10° NNW visible
26 Apr 3.0 20:20:13 10° SSE 20:25:15 71° ENE 20:30:19 10° N visible
26 Apr 5.8 22:02:45 10° WSW 22:04:45 12° W 22:06:44 10° WNW visible
27 Apr 4.9 21:23:21 10° SSW 21:27:40 28° W 21:32:02 10° NW visible
28 Apr 3.4 20:45:47 10° S 20:50:49 65° WSW 20:55:53 10° NNW visible
29 Apr 5.6 21:50:26 10° SW 21:53:28 16° W 21:56:33 10° NW visible
30 Apr 4.5 21:11:50 10° SSW 21:16:28 36° W 21:21:08 10° NNW visible
